Location: Zagreb
(45.8150°N, 15.9819°E)
Time: 21:02:46
(UTC+02:00)

Tiangong - Visible Passes

Search period start: 16 July 2024 00:00
Search period end: 26 July 2024 00:00
Orbit: 374 x 378 km, 41.5° (Epoch: 16 July)

Date Brightness Start Highest point End Pass type
(mag) Time Alt. Az. Time Alt. Az. Time Alt. Az.
16 Jul -0.6 03:23:17 22° SSE 03:23:17 22° SSE 03:25:30 10° ESE visible
17 Jul -1.4 03:55:43 23° SW 03:56:57 33° S 03:59:49 10° ESE visible
18 Jul -0.2 02:56:06 19° ESE 02:56:06 19° ESE 02:57:22 10° ESE visible
18 Jul -1.4 04:28:08 11° WSW 04:30:56 35° S 04:33:49 10° ESE visible
19 Jul -1.5 03:28:34 36° S 03:28:34 36° S 03:31:26 10° ESE visible
20 Jul -1.4 04:01:08 23° SW 04:02:23 32° S 04:05:12 10° ESE visible
21 Jul -0.1 03:01:48 17° ESE 03:01:48 17° ESE 03:02:47 10° ESE visible
21 Jul -0.7 04:33:51 11° WSW 04:36:06 20° SSW 04:38:29 10° SSE visible
22 Jul -0.5 03:34:49 21° SSE 03:34:49 21° SSE 03:36:18 10° SE visible
23 Jul -0.1 04:08:14 13° S 04:08:14 13° S 04:09:03 10° SSE visible
